Location: Newark
(36.0797°N, 3.9744°E)
Time: 22:44:38
(UTC+00:00)

Vanguard 2 - Pass Details

Date: 08 December 2019
Orbit: 553 x 2938 km, 32.9° (Epoch: 21 January)

Event Time Altitude Azimuth Distance (km) Brightness Sun altitude
Exits shadow 01:18:06 38° 101° (E) 3,927 11.0 -64.1°
Drops below altitude 10° 01:27:32 10° 81° (E) 5,581 12.2 -62.3°
Sets 01:31:41 0° 78° (ENE) 6,426 12.6 -61.6°
